This is the latest recevied weather packets stored in our database for station/object N7MLR. If no packets are shown the sender has not sent any weather packets the latest 10 day(s).
| Time | Temp. | Humidity | Pressure | Rain* | Wind** | Luminosity | Snow |
|---|---|---|---|---|---|---|---|
| 1778107309 | 19.44° C | 80% | 1011.2 hPa | 0 mm | - | 129 W/m² | - |
| 1778107005 | 19.44° C | 80% | 1011.1 hPa | 0 mm | - | 167 W/m² | - |
| 1778106701 | 18.89° C | 81% | 1010.9 hPa | 0 mm | - | 174 W/m² | - |
| 1778106398 | 19.44° C | 80% | 1011.2 hPa | 0 mm | - | 215 W/m² | - |
| 1778106094 | 18.89° C | 81% | 1010.6 hPa | 0 mm | - | 278 W/m² | - |
| 1778105792 | 18.89° C | 81% | 1010.9 hPa | 0 mm | - | 228 W/m² | - |
| 1778105490 | 19.44° C | 80% | 1010.8 hPa | 0 mm | - | 112 W/m² | - |
| 1778105186 | 20° C | 79% | 1010.8 hPa | 0 mm | - | 141 W/m² | - |
| 1778104881 | 20° C | 79% | 1010.5 hPa | 0 mm | - | 167 W/m² | - |
| 1778104578 | 20.56° C | 77% | 1010.9 hPa | 0 mm | - | 262 W/m² | - |
| 1778104274 | 21.67° C | 75% | 1010.4 hPa | 0 mm | - | 482 W/m² | - |
| 1778103971 | 21.67° C | 76% | 1010.6 hPa | 0 mm | - | 319 W/m² | - |
| 1778103669 | 21.11° C | 78% | 1010.7 hPa | 0 mm | - | 481 W/m² | - |
| 1778103367 | 22.22° C | 76% | 1010.5 hPa | 0 mm | - | 295 W/m² | - |
| 1778103063 | 22.78° C | 75% | 1010.5 hPa | 0 mm | - | 477 W/m² | - |
| 1778102761 | 22.78° C | 74% | 1010.5 hPa | 0 mm | - | 557 W/m² | - |
| 1778102455 | 22.78° C | 74% | 1010.6 hPa | 0 mm | - | 525 W/m² | - |
| 1778102151 | 22.78° C | 76% | 1010.4 hPa | 0 mm | - | 536 W/m² | - |
| 1778101849 | 22.78° C | 74% | 1010.3 hPa | 0 mm | - | 588 W/m² | - |
| 1778101545 | 23.33° C | 74% | 1010.6 hPa | 0 mm | - | 576 W/m² | - |
| 1778101241 | 23.33° C | 75% | 1010.4 hPa | 0 mm | - | 567 W/m² | - |
| 1778100938 | 23.33° C | 75% | 1010.4 hPa | 0 mm | - | 596 W/m² | - |
| 1778100633 | 22.78° C | 76% | 1010.5 hPa | 0 mm | - | 575 W/m² | - |
| 1778100332 | 23.89° C | 74% | 1010.5 hPa | 0 mm | - | 602 W/m² | - |
| 1778100029 | 23.89° C | 75% | 1010.3 hPa | 0 mm | - | 617 W/m² | - |
* Rain latest hour (hover to see other rain measurements)
** Current wind speed in m/s (hover to see current wind gust speed)